,,Stat5,,Stat1,,Stat2,,Stat3,,Stat4,,Wind1,,Wind1,
time,status,PA1M_AVG,status,PR1M_SUM,status,RH1M_AVG,status,SR1M_AVG,status,TA1M_AVG,status,W1dAve1m,status,W1sAve1m,
2001-08-16, 00:00:00,VALID,920.273,VALID,0,VALID,94.3963,VALID,0,VALID,20.1315,VALID,54,VALID,0,
2001-08-16, 00:01:00,VALID,920.273,VALID,0,VALID,94.3416,VALID,0,VALID,20.1218,VALID,54,VALID,0,
2001-08-16, 00:02:00,VALID,920.287,VALID,0,VALID,94.189,VALID,0,VALID,20.1156,VALID,54,VALID,0,
2001-08-16, 00:03:00,VALID,920.292,VALID,0,VALID,94.0097,VALID,0.0169808,VALID,20.0734,VALID,54,VALID,0,
2001-08-16, 00:04:00,VALID,920.291,VALID,0,VALID,93.9411,VALID,0,VALID,20.0443,VALID,53,VALID,0.145693,
2001-08-16, 00:05:00,VALID,920.291,VALID,0,VALID,93.9932,VALID,0,VALID,19.9991,VALID,39,VALID,0.491132,
2001-08-16, 00:06:00,VALID,920.297,VALID,0,VALID,94.0034,VALID,0,VALID,19.9343,VALID,24,VALID,0.581801,
2001-08-16, 00:07:00,VALID,920.275,VALID,0,VALID,94.1712,VALID,0.0169808,VALID,19.8863,VALID,24,VALID,0.533784,
2001-08-16, 00:08:00,VALID,920.272,VALID,0,VALID,94.6532,VALID,0,VALID,19.864,VALID,19,VALID,0.523872,
2001-08-16, 00:09:00,VALID,920.257,VALID,0,VALID,94.8579,VALID,0,VALID,19.8374,VALID,18,VALID,0.314611,
2001-08-16, 00:10:00,VALID,920.249,VALID,0,VALID,94.9749,VALID,0,VALID,19.8279,VALID,18,VALID,0.228885,
2001-08-16, 00:11:00,VALID,920.238,VALID,0,VALID,95.1147,VALID,0,VALID,19.8284,VALID,18,VALID,0.248242,
2001-08-16, 00:12:00,VALID,920.226,VALID,0,VALID,95.1643,VALID,0.0169808,VALID,19.8577,VALID,20,VALID,0.257412,
2001-08-16, 00:13:00,VALID,920.204,VALID,0,VALID,95.0868,VALID,0,VALID,19.8667,VALID,59,VALID,0.331445,
2001-08-16, 00:14:00,VALID,920.184,VALID,0,VALID,94.9304,VALID,0,VALID,19.8801,VALID,93,VALID,0.333676,
2001-08-16, 00:15:00,VALID,920.147,VALID,0,VALID,94.9088,VALID,0.0169808,VALID,19.903,VALID,93,VALID,0.326172,
2001-08-16, 00:16:00,VALID,920.126,VALID,0,VALID,94.7918,VALID,0,VALID,19.8992,VALID,90,VALID,0.234175,
2001-08-16, 00:17:00,VALID,920.103,VALID,0,VALID,94.6061,VALID,0,VALID,19.8928,VALID,90,VALID,0.166016,
2001-08-16, 00:18:00,VALID,920.072,VALID,0,VALID,94.6455,VALID,0,VALID,19.8766,VALID,93,VALID,0.088199,
2001-08-16, 00:19:00,VALID,920.071,VALID,0,VALID,94.8452,VALID,0,VALID,19.8739,VALID,96,VALID,0.028125,
2001-08-16, 00:20:00,VALID,920.09,VALID,0,VALID,94.9507,VALID,-0.0169808,VALID,19.8736,VALID,96,VALID,0.154046,
2001-08-16, 00:21:00,VALID,920.089,VALID,0,VALID,94.999,VALID,-0.0169808,VALID,19.8766,VALID,96,VALID,0.0685547,
2001-08-16, 00:22:00,VALID,920.096,VALID,0,VALID,94.98,VALID,-0.0169808,VALID,19.8933,VALID,96,VALID,0.00370066,
2001-08-16, 00:23:00,VALID,920.106,VALID,0,VALID,94.8426,VALID,-0.0169808,VALID,19.897,VALID,96,VALID,0.255078,
2001-08-16, 00:24:00,VALID,920.098,VALID,0,VALID,95.0232,VALID,-0.0169808,VALID,19.8841,VALID,101,VALID,0.470353,
2001-08-16, 00:25:00,VALID,920.096,VALID,0,VALID,95.3856,VALID,0,VALID,19.8968,VALID,122,VALID,0.599414,
2001-08-16, 00:26:00,VALID,920.097,VALID,0,VALID,95.5204,VALID,0.0169808,VALID,19.9057,VALID,126,VALID,0.415296,
2001-08-16, 00:27:00,VALID,920.077,VALID,0,VALID,95.5662,VALID,0,VALID,19.9223,VALID,120,VALID,0.372656,
2001-08-16, 00:28:00,VALID,920.071,VALID,0,VALID,95.4199,VALID,0,VALID,19.9216,VALID,116,VALID,0.358574,
2001-08-16, 00:29:00,VALID,920.037,VALID,0,VALID,95.336,VALID,0,VALID,19.9191,VALID,114,VALID,0.292969,
2001-08-16, 00:30:00,VALID,920.029,VALID,0,VALID,94.8274,VALID,0,VALID,19.864,VALID,64,VALID,0.461349,
2001-08-16, 00:31:00,VALID,919.992,VALID,0,VALID,95.0397,VALID,-0.0169808,VALID,19.8446,VALID,58,VALID,0.606836,
2001-08-16, 00:32:00,VALID,919.962,VALID,0,VALID,95.0308,VALID,0,VALID,19.851,VALID,57,VALID,0.667268,
2001-08-16, 00:33:00,VALID,919.941,VALID,0,VALID,95.3754,VALID,0,VALID,19.8483,VALID,55,VALID,0.834375,
2001-08-16, 00:34:00,VALID,919.907,VALID,0,VALID,95.1262,VALID,0,VALID,19.8187,VALID,37,VALID,0.443257,
2001-08-16, 00:35:00,VALID,919.904,VALID,0,VALID,94.7358,VALID,0,VALID,19.7509,VALID,31,VALID,0.640625,
2001-08-16, 00:36:00,VALID,919.902,VALID,0,VALID,95.4276,VALID,0,VALID,19.7223,VALID,38,VALID,0.703726,
2001-08-16, 00:37:00,VALID,919.893,VALID,0,VALID,96.1613,VALID,0,VALID,19.7902,VALID,32,VALID,0.457227,
2001-08-16, 00:38:00,VALID,919.881,VALID,0,VALID,96.0011,VALID,0,VALID,19.8058,VALID,30,VALID,0,
2001-08-16, 00:39:00,VALID,919.876,VALID,0,VALID,95.9095,VALID,0,VALID,19.8227,VALID,30,VALID,0,
2001-08-16, 00:40:00,VALID,919.865,VALID,0,VALID,95.9667,VALID,0,VALID,19.8421,VALID,30,VALID,0.0606971,
2001-08-16, 00:41:00,VALID,919.861,VALID,0,VALID,95.9311,VALID,-0.0169808,VALID,19.8617,VALID,31,VALID,0.0425781,
2001-08-16, 00:42:00,VALID,919.838,VALID,0,VALID,95.8256,VALID,-0.0339617,VALID,19.8679,VALID,47,VALID,0.225123,
2001-08-16, 00:43:00,VALID,919.807,VALID,0,VALID,95.9273,VALID,-0.0339617,VALID,19.901,VALID,113,VALID,0.48457,
2001-08-16, 00:44:00,VALID,919.764,VALID,0,VALID,95.9184,VALID,0.0339617,VALID,19.9213,VALID,144,VALID,0.624414,
2001-08-16, 00:45:00,VALID,919.731,VALID,0,VALID,95.9095,VALID,0.0849042,VALID,19.9181,VALID,140,VALID,0.717773,
2001-08-16, 00:46:00,VALID,919.693,VALID,0,VALID,96.1448,VALID,0.101885,VALID,19.9144,VALID,139,VALID,0.523232,
2001-08-16, 00:47:00,VALID,919.667,VALID,0,VALID,96.2096,VALID,0.101885,VALID,19.9246,VALID,137,VALID,0.407422,
2001-08-16, 00:48:00,VALID,919.639,VALID,0,VALID,96.1893,VALID,0.0849042,VALID,19.9313,VALID,130,VALID,0.35617,
2001-08-16, 00:49:00,VALID,919.644,VALID,0,VALID,96.2121,VALID,0.0679233,VALID,19.9313,VALID,125,VALID,0.421484,
2001-08-16, 00:50:00,VALID,919.622,VALID,0,VALID,96.3266,VALID,0.0849042,VALID,19.934,VALID,125,VALID,0.311061,
2001-08-16, 00:51:00,VALID,919.603,VALID,0,VALID,96.3978,VALID,0.101885,VALID,19.9305,VALID,125,VALID,0.177344,
2001-08-16, 00:52:00,VALID,919.594,VALID,0,VALID,96.2872,VALID,0.0849042,VALID,19.9439,VALID,125,VALID,0.0126202,
2001-08-16, 00:53:00,VALID,919.556,VALID,0,VALID,95.7773,VALID,0.0849042,VALID,19.8662,VALID,125,VALID,0,
2001-08-16, 00:54:00,VALID,919.53,VALID,0,VALID,95.6018,VALID,0.0849042,VALID,19.8339,VALID,125,VALID,0,
2001-08-16, 00:55:00,VALID,919.505,VALID,0,VALID,95.5433,VALID,0.0849042,VALID,19.8016,VALID,125,VALID,0,
2001-08-16, 00:56:00,VALID,919.488,VALID,0,VALID,95.7391,VALID,0.0679233,VALID,19.808,VALID,125,VALID,0,
2001-08-16, 00:57:00,VALID,919.461,VALID,0,VALID,95.926,VALID,0.101885,VALID,19.8274,VALID,125,VALID,0,
2001-08-16, 00:58:00,VALID,919.44,VALID,0,VALID,95.9883,VALID,0.0849042,VALID,19.8602,VALID,127,VALID,0.0129523,
2001-08-16, 00:59:00,VALID,919.433,VALID,0,VALID,95.9896,VALID,0.0509425,VALID,19.8766,VALID,132,VALID,0.0632813,
2001-08-16, 01:00:00,VALID,919.404,VALID,0,VALID,95.9667,VALID,0,VALID,19.8905,VALID,132,VALID,0,
2001-08-16, 01:01:00,VALID,919.385,VALID,0,VALID,95.8205,VALID,-0.0339617,VALID,19.8846,VALID,159,VALID,0.133398,
2001-08-16, 01:02:00,VALID,919.36,VALID,0,VALID,95.7251,VALID,-0.0679233,VALID,19.8779,VALID,177,VALID,0.0859375,
2001-08-16, 01:03:00,VALID,919.328,VALID,0,VALID,95.7633,VALID,-0.0339617,VALID,19.8781,VALID,213,VALID,0.248633,
2001-08-16, 01:04:00,VALID,919.281,VALID,0,VALID,95.912,VALID,-0.0509425,VALID,19.8878,VALID,235,VALID,0.319511,
2001-08-16, 01:05:00,VALID,919.234,VALID,0,VALID,95.9629,VALID,-0.0169808,VALID,19.891,VALID,235,VALID,0.0867188,
2001-08-16, 01:06:00,VALID,919.199,VALID,0,VALID,95.8116,VALID,0,VALID,19.8841,VALID,235,VALID,0,
2001-08-16, 01:07:00,VALID,919.143,VALID,0,VALID,95.5547,VALID,-0.0169808,VALID,19.8585,VALID,235,VALID,0,
2001-08-16, 01:08:00,VALID,919.101,VALID,0,VALID,95.4301,VALID,0,VALID,19.8192,VALID,179,VALID,0.172877,
2001-08-16, 01:09:00,VALID,919.06,VALID,0,VALID,95.3767,VALID,0,VALID,19.7909,VALID,136,VALID,0.17168,
2001-08-16, 01:10:00,VALID,919.036,VALID,0,VALID,95.4339,VALID,0,VALID,19.7522,VALID,136,VALID,0.0238487,
2001-08-16, 01:11:00,VALID,919.034,VALID,0,VALID,95.5713,VALID,-0.0169808,VALID,19.7263,VALID,136,VALID,0,
2001-08-16, 01:12:00,VALID,919.024,VALID,0,VALID,95.715,VALID,-0.0169808,VALID,19.7199,VALID,136,VALID,0,
2001-08-16, 01:13:00,VALID,919.03,VALID,0,VALID,95.8167,VALID,-0.0169808,VALID,19.7263,VALID,136,VALID,0,
2001-08-16, 01:14:00,VALID,919.029,VALID,0,VALID,95.8001,VALID,0,VALID,19.7196,VALID,136,VALID,0.0448191,
2001-08-16, 01:15:00,VALID,918.999,VALID,0,VALID,95.5255,VALID,0.0679233,VALID,19.7054,VALID,136,VALID,0.227539,
2001-08-16, 01:16:00,VALID,918.968,VALID,0,VALID,95.3869,VALID,0.0849042,VALID,19.6632,VALID,134,VALID,0.424479,
2001-08-16, 01:17:00,VALID,918.923,VALID,0,VALID,95.8357,VALID,0.0339617,VALID,19.6406,VALID,132,VALID,0.538281,
2001-08-16, 01:18:00,VALID,918.893,VALID,0,VALID,96.2032,VALID,0.0679233,VALID,19.6702,VALID,118,VALID,0.520354,
2001-08-16, 01:19:00,VALID,918.846,VALID,0,VALID,96.572,VALID,0.0169808,VALID,19.6928,VALID,110,VALID,0.628516,
2001-08-16, 01:20:00,VALID,918.796,VALID,0,VALID,96.6737,VALID,0.0849042,VALID,19.7149,VALID,110,VALID,0.514223,
2001-08-16, 01:21:00,VALID,918.742,VALID,0,VALID,96.614,VALID,0.0339617,VALID,19.7248,VALID,102,VALID,0.680273,
2001-08-16, 01:22:00,VALID,918.72,VALID,0,VALID,96.7144,VALID,0.101885,VALID,19.7248,VALID,105,VALID,0.719572,
2001-08-16, 01:23:00,VALID,918.682,VALID,0,VALID,96.867,VALID,0.0509425,VALID,19.7248,VALID,110,VALID,0.839453,
2001-08-16, 01:24:00,VALID,918.66,VALID,0,VALID,96.8823,VALID,0.0509425,VALID,19.7117,VALID,115,VALID,0.855569,
2001-08-16, 01:25:00,VALID,918.221,VALID,0,VALID,97.04,VALID,0.0509425,VALID,19.7345,VALID,119,VALID,0.914258,
2001-08-16, 01:26:00,VALID,918.635,VALID,0,VALID,96.8479,VALID,0.0509425,VALID,19.7022,VALID,123,VALID,0.688322,
2001-08-16, 01:27:00,VALID,918.636,VALID,0,VALID,96.8823,VALID,0.0849042,VALID,19.6731,VALID,130,VALID,0.765625,
2001-08-16, 01:28:00,VALID,918.627,VALID,0,VALID,97.1569,VALID,0.101885,VALID,19.6796,VALID,136,VALID,0.738782,
2001-08-16, 01:29:00,VALID,918.629,VALID,0,VALID,97.3629,VALID,0.0169808,VALID,19.6873,VALID,145,VALID,0.918555,
2001-08-16, 01:30:00,VALID,918.641,VALID,0,VALID,97.438,VALID,-0.0509425,VALID,19.6883,VALID,143,VALID,0.691817,
2001-08-16, 01:31:00,VALID,918.634,VALID,0,VALID,97.5232,VALID,-0.0339617,VALID,19.6684,VALID,130,VALID,0.61543,
2001-08-16, 01:32:00,VALID,918.614,VALID,0,VALID,97.5995,VALID,-0.0509425,VALID,19.6483,VALID,108,VALID,0.503405,
2001-08-16, 01:33:00,VALID,918.59,VALID,0,VALID,97.5956,VALID,-0.0509425,VALID,19.6324,VALID,80,VALID,0.379297,
2001-08-16, 01:34:00,VALID,918.56,VALID,0,VALID,97.5181,VALID,-0.0509425,VALID,19.6041,VALID,73,VALID,0.614515,
2001-08-16, 01:35:00,VALID,918.522,VALID,0,VALID,97.6185,VALID,-0.0339617,VALID,19.5882,VALID,70,VALID,0.841797,
2001-08-16, 01:36:00,VALID,918.491,VALID,0,VALID,97.7762,VALID,-0.0679233,VALID,19.5974,VALID,77,VALID,0.598357,
2001-08-16, 01:37:00,VALID,918.476,VALID,0,VALID,97.897,VALID,-0.0679233,VALID,19.5936,VALID,105,VALID,0.721289,
2001-08-16, 01:38:00,VALID,918.444,VALID,0,VALID,98.0204,VALID,-0.0169808,VALID,19.61,VALID,111,VALID,0.572368,
2001-08-16, 01:39:00,VALID,918.445,VALID,0,VALID,98.042,VALID,0,VALID,19.613,VALID,116,VALID,0.428711,
2001-08-16, 01:40:00,VALID,918.421,VALID,0,VALID,98.1183,VALID,-0.0339617,VALID,19.6163,VALID,121,VALID,0.326322,
2001-08-16, 01:41:00,VALID,918.41,VALID,0,VALID,98.1488,VALID,-0.0169808,VALID,19.6361,VALID,132,VALID,0.552734,
2001-08-16, 01:42:00,VALID,918.411,VALID,0,VALID,98.1335,VALID,-0.0339617,VALID,19.6396,VALID,141,VALID,0.51912,
2001-08-16, 01:43:00,VALID,918.403,VALID,0,VALID,98.0928,VALID,-0.0169808,VALID,19.6227,VALID,144,VALID,0.407617,
2001-08-16, 01:44:00,VALID,918.396,VALID,0,VALID,98.0636,VALID,-0.0169808,VALID,19.6197,VALID,133,VALID,0.224559,
2001-08-16, 01:45:00,VALID,918.382,VALID,0,VALID,97.9898,VALID,-0.0509425,VALID,19.5907,VALID,126,VALID,0.404492,
2001-08-16, 01:46:00,VALID,918.379,VALID,0,VALID,98.1234,VALID,-0.0169808,VALID,19.584,VALID,130,VALID,0.657484,
2001-08-16, 01:47:00,VALID,918.368,VALID,0,VALID,98.1552,VALID,-0.0169808,VALID,19.6103,VALID,129,VALID,0.6875,
2001-08-16, 01:48:00,VALID,918.367,VALID,0,VALID,98.2823,VALID,-0.0339617,VALID,19.6391,VALID,120,VALID,0.640024,
2001-08-16, 01:49:00,VALID,918.365,VALID,0,VALID,98.2569,VALID,-0.0679233,VALID,19.6391,VALID,120,VALID,0.774023,
2001-08-16, 01:50:00,VALID,918.372,VALID,0,VALID,98.2734,VALID,0,VALID,19.6423,VALID,120,VALID,0.877467,
2001-08-16, 01:51:00,VALID,918.391,VALID,0,VALID,98.1908,VALID,-0.0509425,VALID,19.6426,VALID,120,VALID,0.84375,
2001-08-16, 01:52:00,VALID,918.398,VALID,0,VALID,98.178,VALID,-0.0679233,VALID,19.6068,VALID,129,VALID,0.716546,
2001-08-16, 01:53:00,VALID,918.416,VALID,0,VALID,98.1768,VALID,-0.0679233,VALID,19.6036,VALID,117,VALID,0.691016,
2001-08-16, 01:54:00,VALID,918.415,VALID,0,VALID,98.2327,VALID,-0.0339617,VALID,19.5877,VALID,115,VALID,0.895559,
2001-08-16, 01:55:00,VALID,918.396,VALID,0,VALID,98.3027,VALID,-0.0509425,VALID,19.6038,VALID,110,VALID,1.09023,
2001-08-16, 01:56:00,VALID,918.373,VALID,0,VALID,98.3256,VALID,-0.0509425,VALID,19.6205,VALID,103,VALID,1.02804,
2001-08-16, 01:57:00,VALID,918.345,VALID,0,VALID,98.3612,VALID,-0.0509425,VALID,19.6202,VALID,94,VALID,0.832617,
2001-08-16, 01:58:00,VALID,918.31,VALID,0,VALID,98.4018,VALID,-0.0509425,VALID,19.656,VALID,92,VALID,0.730263,
2001-08-16, 01:59:00,VALID,918.272,VALID,0,VALID,98.3306,VALID,-0.0339617,VALID,19.6356,VALID,103,VALID,0.774609,
2001-08-16, 02:00:00,VALID,918.238,VALID,0,VALID,98.3446,VALID,0.0339617,VALID,19.6282,VALID,110,VALID,0.811699,
2001-08-16, 02:01:00,VALID,918.224,VALID,0,VALID,98.384,VALID,0.0509425,VALID,19.6448,VALID,112,VALID,0.89375,
2001-08-16, 02:02:00,VALID,918.217,VALID,0,VALID,98.4527,VALID,0.0679233,VALID,19.6478,VALID,117,VALID,0.841077,
2001-08-16, 02:03:00,VALID,918.2,VALID,0,VALID,98.426,VALID,0.0169808,VALID,19.6545,VALID,116,VALID,0.844727,
2001-08-16, 02:04:00,VALID,918.201,VALID,0,VALID,98.4527,VALID,0.0169808,VALID,19.6577,VALID,106,VALID,0.958133,
2001-08-16, 02:05:00,VALID,918.202,VALID,0,VALID,98.4413,VALID,0.0509425,VALID,19.6577,VALID,100,VALID,1.01445,
2001-08-16, 02:06:00,VALID,918.197,VALID,0,VALID,98.426,VALID,0.0169808,VALID,19.6319,VALID,104,VALID,0.885485,
2001-08-16, 02:07:00,VALID,918.203,VALID,0,VALID,98.3675,VALID,0.0339617,VALID,19.6093,VALID,97,VALID,1.02656,
2001-08-16, 02:08:00,VALID,918.194,VALID,0,VALID,98.3612,VALID,0.0169808,VALID,19.5633,VALID,77,VALID,0.917468,
2001-08-16, 02:09:00,VALID,918.195,VALID,0,VALID,98.3268,VALID,0.0169808,VALID,19.5355,VALID,86,VALID,0.984766,
2001-08-16, 02:10:00,VALID,918.183,VALID,0,VALID,98.5227,VALID,0.0339617,VALID,19.5318,VALID,100,VALID,1.52899,
2001-08-16, 02:11:00,VALID,918.162,VALID,0,VALID,98.5761,VALID,0.0339617,VALID,19.5574,VALID,104,VALID,1.19336,
2001-08-16, 02:12:00,VALID,918.172,VALID,0,VALID,98.4629,VALID,0.0169808,VALID,19.5286,VALID,86,VALID,1.05689,
2001-08-16, 02:13:00,VALID,918.164,VALID,0,VALID,98.3535,VALID,0.0339617,VALID,19.4381,VALID,73,VALID,0.88125,
2001-08-16, 02:14:00,VALID,918.185,VALID,0,VALID,98.3624,VALID,-0.0339617,VALID,19.3934,VALID,83,VALID,0.594778,
2001-08-16, 02:15:00,VALID,918.22,VALID,0,VALID,98.398,VALID,-0.0509425,VALID,19.3462,VALID,126,VALID,0.884961,
2001-08-16, 02:16:00,VALID,918.247,VALID,0,VALID,98.5265,VALID,-0.0509425,VALID,19.3228,VALID,146,VALID,0.794872,
2001-08-16, 02:17:00,VALID,918.294,VALID,0,VALID,98.5773,VALID,-0.0849042,VALID,19.3228,VALID,121,VALID,0.885352,
2001-08-16, 02:18:00,VALID,918.3,VALID,0,VALID,98.6485,VALID,-0.0509425,VALID,19.3335,VALID,100,VALID,0.801192,
2001-08-16, 02:19:00,VALID,918.316,VALID,0,VALID,98.7973,VALID,-0.101885,VALID,19.3981,VALID,136,VALID,0.586719,
2001-08-16, 02:20:00,VALID,918.328,VALID,0,VALID,98.8151,VALID,-0.101885,VALID,19.4264,VALID,132,VALID,0.385417,
2001-08-16, 02:21:00,VALID,918.327,VALID,0,VALID,98.791,VALID,-0.101885,VALID,19.4431,VALID,148,VALID,0.521484,
2001-08-16, 02:22:00,VALID,918.311,VALID,0,VALID,98.7884,VALID,-0.101885,VALID,19.4461,VALID,98,VALID,0.441817,
2001-08-16, 02:23:00,VALID,918.294,VALID,0,VALID,98.7261,VALID,-0.101885,VALID,19.4239,VALID,42,VALID,0.775586,
2001-08-16, 02:24:00,VALID,918.287,VALID,0,VALID,98.7388,VALID,-0.101885,VALID,19.4113,VALID,45,VALID,0.514623,
2001-08-16, 02:25:00,VALID,918.283,VALID,0,VALID,98.7236,VALID,-0.0679233,VALID,19.4016,VALID,49,VALID,0.444922,
2001-08-16, 02:26:00,VALID,918.276,VALID,0,VALID,98.7236,VALID,-0.101885,VALID,19.3715,VALID,46,VALID,0.374178,
2001-08-16, 02:27:00,VALID,918.278,VALID,0,VALID,98.7401,VALID,-0.118866,VALID,19.3718,VALID,31,VALID,0.300977,
2001-08-16, 02:28:00,VALID,918.279,VALID,0,VALID,98.7515,VALID,-0.101885,VALID,19.3683,VALID,13,VALID,0.122596,
2001-08-16, 02:29:00,VALID,918.27,VALID,0,VALID,98.7617,VALID,-0.0509425,VALID,19.3748,VALID,9,VALID,0.0759766,
2001-08-16, 02:30:00,VALID,918.266,VALID,0,VALID,98.7795,VALID,0,VALID,19.3773,VALID,3,VALID,0.280633,
2001-08-16, 02:31:00,VALID,918.234,VALID,0,VALID,98.7973,VALID,0,VALID,19.3964,VALID,345,VALID,0.370508,
2001-08-16, 02:32:00,VALID,918.208,VALID,0,VALID,98.8113,VALID,0.0169808,VALID,19.4028,VALID,341,VALID,0.638421,
2001-08-16, 02:33:00,VALID,918.177,VALID,0,VALID,98.81,VALID,0,VALID,19.3969,VALID,330,VALID,0.746094,
2001-08-16, 02:34:00,VALID,918.165,VALID,0,VALID,98.8406,VALID,0.0169808,VALID,19.4255,VALID,327,VALID,0.620271,
2001-08-16, 02:35:00,VALID,918.151,VALID,0,VALID,98.8406,VALID,0.0169808,VALID,19.4284,VALID,327,VALID,0.295898,
2001-08-16, 02:36:00,VALID,918.15,VALID,0,VALID,98.8266,VALID,0.0169808,VALID,19.4359,VALID,263,VALID,0.396835,
2001-08-16, 02:37:00,VALID,918.152,VALID,0,VALID,98.8151,VALID,0,VALID,19.4155,VALID,246,VALID,0.485352,
2001-08-16, 02:38:00,VALID,918.146,VALID,0,VALID,98.8049,VALID,0.0509425,VALID,19.3927,VALID,247,VALID,0.239309,
2001-08-16, 02:39:00,VALID,918.153,VALID,0,VALID,98.791,VALID,0.0339617,VALID,19.3706,VALID,249,VALID,0.397852,
2001-08-16, 02:40:00,VALID,918.159,VALID,0,VALID,98.7706,VALID,0,VALID,19.3514,VALID,258,VALID,0.584335,
2001-08-16, 02:41:00,VALID,918.159,VALID,0,VALID,98.7833,VALID,0,VALID,19.3482,VALID,260,VALID,0.360547,
2001-08-16, 02:42:00,VALID,918.183,VALID,0,VALID,98.7859,VALID,0,VALID,19.3417,VALID,288,VALID,0.158923,
2001-08-16, 02:43:00,VALID,918.181,VALID,0,VALID,98.796,VALID,0.0169808,VALID,19.3358,VALID,344,VALID,0.445313,
2001-08-16, 02:44:00,VALID,918.174,VALID,0,VALID,98.7833,VALID,0,VALID,19.3124,VALID,356,VALID,0.417067,
2001-08-16, 02:45:00,VALID,918.164,VALID,0,VALID,98.7312,VALID,0.0509425,VALID,19.2538,VALID,6,VALID,0.292383,
2001-08-16, 02:46:00,VALID,918.149,VALID,0,VALID,98.6892,VALID,0,VALID,19.2158,VALID,6,VALID,0.129729,
2001-08-16, 02:47:00,VALID,918.146,VALID,0,VALID,98.6574,VALID,0.0339617,VALID,19.1775,VALID,6,VALID,0,
2001-08-16, 02:48:00,VALID,918.151,VALID,0,VALID,98.6396,VALID,0.0169808,VALID,19.1413,VALID,6,VALID,0.132212,
2001-08-16, 02:49:00,VALID,918.152,VALID,0,VALID,98.5926,VALID,0.0169808,VALID,19.0898,VALID,6,VALID,0.00820312,
2001-08-16, 02:50:00,VALID,918.166,VALID,0,VALID,98.5735,VALID,0.0169808,VALID,19.061,VALID,358,VALID,0.144326,
2001-08-16, 02:51:00,VALID,918.168,VALID,0,VALID,98.7159,VALID,0,VALID,19.1288,VALID,308,VALID,0.278516,
2001-08-16, 02:52:00,VALID,918.169,VALID,0,VALID,98.8342,VALID,0.0339617,VALID,19.2158,VALID,300,VALID,0.17488,
2001-08-16, 02:53:00,VALID,918.147,VALID,0,VALID,98.8558,VALID,0,VALID,19.2381,VALID,265,VALID,0.0658203,
2001-08-16, 02:54:00,VALID,918.115,VALID,0,VALID,98.8469,VALID,0.0679233,VALID,19.2414,VALID,7,VALID,0.0958059,
2001-08-16, 02:55:00,VALID,918.064,VALID,0,VALID,98.8596,VALID,0,VALID,19.254,VALID,9,VALID,0.373633,
2001-08-16, 02:56:00,VALID,918.041,VALID,0,VALID,98.8151,VALID,0.0339617,VALID,19.2386,VALID,348,VALID,0.417468,
2001-08-16, 02:57:00,VALID,918.01,VALID,0,VALID,98.8355,VALID,0,VALID,19.2446,VALID,328,VALID,0.150586,
2001-08-16, 02:58:00,VALID,918.001,VALID,0,VALID,98.852,VALID,0.0339617,VALID,19.2511,VALID,328,VALID,0.0696957,
2001-08-16, 02:59:00,VALID,917.993,VALID,0,VALID,98.852,VALID,-0.0339617,VALID,19.2649,VALID,340,VALID,0.103711,
2001-08-16, 03:00:00,VALID,917.992,VALID,0,VALID,98.7948,VALID,-0.101885,VALID,19.2237,VALID,14,VALID,0.325521,
2001-08-16, 03:01:00,VALID,917.986,VALID,0,VALID,98.6791,VALID,-0.0849042,VALID,19.1296,VALID,18,VALID,0.585156,
2001-08-16, 03:02:00,VALID,917.99,VALID,0,VALID,98.6295,VALID,-0.0849042,VALID,19.0585,VALID,23,VALID,0.601768,
2001-08-16, 03:03:00,VALID,917.986,VALID,0,VALID,98.6714,VALID,-0.0849042,VALID,19.0394,VALID,31,VALID,0.716992,
2001-08-16, 03:04:00,VALID,917.97,VALID,0,VALID,98.6943,VALID,-0.101885,VALID,19.0235,VALID,31,VALID,0.812099,
2001-08-16, 03:05:00,VALID,917.976,VALID,0,VALID,98.6778,VALID,-0.0849042,VALID,18.9782,VALID,22,VALID,0.81875,
2001-08-16, 03:06:00,VALID,917.986,VALID,0,VALID,98.646,VALID,-0.0849042,VALID,18.9363,VALID,21,VALID,0.496711,
2001-08-16, 03:07:00,VALID,917.993,VALID,0,VALID,98.6435,VALID,-0.0849042,VALID,18.8777,VALID,10,VALID,0.519531,
2001-08-16, 03:08:00,VALID,917.993,VALID,0,VALID,98.674,VALID,-0.0849042,VALID,18.8518,VALID,359,VALID,0.616186,
2001-08-16, 03:09:00,VALID,917.995,VALID,0,VALID,98.7108,VALID,-0.0849042,VALID,18.8521,VALID,345,VALID,0.539063,
2001-08-16, 03:10:00,VALID,918,VALID,0,VALID,98.8088,VALID,-0.0849042,VALID,18.8848,VALID,256,VALID,0.226763,
2001-08-16, 03:11:00,VALID,918,VALID,0,VALID,98.8393,VALID,-0.0509425,VALID,18.9037,VALID,320,VALID,0.191992,
2001-08-16, 03:12:00,VALID,918,VALID,0,VALID,98.8825,VALID,-0.101885,VALID,18.939,VALID,324,VALID,0.205729,
2001-08-16, 03:13:00,VALID,918.009,VALID,0,VALID,98.8393,VALID,-0.0509425,VALID,18.9497,VALID,347,VALID,0.100195,
2001-08-16, 03:14:00,VALID,918.02,VALID,0,VALID,98.8215,VALID,-0.0509425,VALID,18.9233,VALID,14,VALID,0.480674,
2001-08-16, 03:15:00,VALID,918.034,VALID,0,VALID,98.8266,VALID,-0.0679233,VALID,18.9137,VALID,32,VALID,0.319727,
2001-08-16, 03:16:00,VALID,918.057,VALID,0,VALID,98.7732,VALID,-0.101885,VALID,18.8878,VALID,33,VALID,0.546074,
2001-08-16, 03:17:00,VALID,918.065,VALID,0,VALID,98.5188,VALID,-0.101885,VALID,18.7656,VALID,24,VALID,0.843359,
2001-08-16, 03:18:00,VALID,918.072,VALID,0,VALID,98.7159,VALID,-0.101885,VALID,18.805,VALID,18,VALID,1.07299,
2001-08-16, 03:19:00,VALID,918.083,VALID,0,VALID,98.7515,VALID,-0.101885,VALID,18.8269,VALID,14,VALID,1.01504,
2001-08-16, 03:20:00,VALID,918.079,VALID,0,VALID,98.7147,VALID,-0.0679233,VALID,18.8299,VALID,1,VALID,0.720152,
2001-08-16, 03:21:00,VALID,918.086,VALID,0,VALID,98.6498,VALID,-0.0849042,VALID,18.8036,VALID,262,VALID,0.428711,
2001-08-16, 03:22:00,VALID,918.068,VALID,0,VALID,98.7541,VALID,-0.0849042,VALID,18.8818,VALID,233,VALID,0.41509,
2001-08-16, 03:23:00,VALID,918.048,VALID,0,VALID,98.8164,VALID,-0.0849042,VALID,18.946,VALID,233,VALID,0.0712891,
2001-08-16, 03:24:00,VALID,918.01,VALID,0,VALID,98.7592,VALID,-0.0679233,VALID,18.9363,VALID,233,VALID,0.0839343,
2001-08-16, 03:25:00,VALID,917.976,VALID,0,VALID,98.5799,VALID,-0.0849042,VALID,18.8461,VALID,1,VALID,0.557813,
2001-08-16, 03:26:00,VALID,917.971,VALID,0,VALID,98.5621,VALID,-0.101885,VALID,18.8202,VALID,8,VALID,0.726563,
2001-08-16, 03:27:00,VALID,917.944,VALID,0,VALID,98.5392,VALID,-0.0679233,VALID,18.7976,VALID,10,VALID,1.07871,
2001-08-16, 03:28:00,VALID,917.946,VALID,0,VALID,98.4196,VALID,-0.0849042,VALID,18.7587,VALID,8,VALID,1.14643,
2001-08-16, 03:29:00,VALID,917.947,VALID,0,VALID,98.4654,VALID,-0.0509425,VALID,18.784,VALID,5,VALID,0.889063,
2001-08-16, 03:30:00,VALID,917.929,VALID,0,VALID,98.3739,VALID,0,VALID,18.8091,VALID,354,VALID,0.703947,
2001-08-16, 03:31:00,VALID,917.929,VALID,0,VALID,98.3103,VALID,0,VALID,18.8481,VALID,353,VALID,0.547266,
2001-08-16, 03:32:00,VALID,917.928,VALID,0,VALID,98.2734,VALID,0.0339617,VALID,18.8804,VALID,322,VALID,0.502003,
2001-08-16, 03:33:00,VALID,917.92,VALID,0,VALID,98.234,VALID,0,VALID,18.906,VALID,321,VALID,0.40625,
2001-08-16, 03:34:00,VALID,917.909,VALID,0,VALID,98.1641,VALID,0.0339617,VALID,18.9192,VALID,306,VALID,0.473479,